Volver al catálogo

CENTISPACE-1 S10

ActivoNavegaciónLEO
NORAD 62579·PAYLOAD·🇨🇳 China

Lanzado Jan 13, 2025 desde Yellow Sea Launch Area

Loading…

Próximos Pases (próximas 24 horas)

TLE

ActualizadoSource: Space-Track

Época: Sep 14, 2026, 14:48 UTC

1 62579U 25007E   26257.61707471 -.00000049  00000-0  86504-4 0  9999
2 62579  54.9909 338.7887 0009122 269.1599  90.8312 13.80623653 87089

Sigue CENTISPACE-1 S10 en tiempo real con AllMySat

Download on the App Store